Simultaneous Nadir Overpasses (SNOs) Predictions

Prediction of SNOs between AQUA and METOP-C Satellite Orbit:

Table of predicted SNOs for the next 14.0 days since TLE Epoch: 7/31/2020
Index Date (AQUA) Time (AQUA) Lat,Lon (AQUA) SZA (AQUA ) Date (METOP-C) Time (METOP-C) Lat,Lon (METOP-C) SZA (METOP-C ) Distance(km) Time Diff (sec)
1 08/02/2020 01:48:56 73.74, 147.23 56.12 08/02/2020 01:48:28 73.76, 147.24 56.15 3.07 28
2 08/02/2020 02:38:23 -73.83, -45.34 123.78 08/02/2020 02:39:08 -73.81, -45.30 123.80 2.00 45
3 08/04/2020 20:33:30 -73.04, 47.48 123.90 08/04/2020 20:32:24 -73.00, 44.60 123.81 93.52 66
4 08/04/2020 21:23:12 73.78,-146.43 56.91 08/04/2020 21:22:49 73.77,-146.33 56.90 3.47 23
5 08/04/2020 22:12:38 -73.82, 21.12 123.04 08/04/2020 22:13:29 -73.82, 21.13 123.05 0.31 51
6 08/07/2020 16:07:49 -73.25, 113.50 122.90 08/07/2020 16:06:41 -73.21, 111.46 122.85 65.62 68
7 08/07/2020 16:57:27 73.78, -79.99 57.68 08/07/2020 16:57:10 73.78, -79.90 57.68 2.57 17
8 08/07/2020 17:46:53 -73.81, 87.57 122.27 08/07/2020 17:47:50 -73.83, 87.56 122.26 1.82 57
9 08/10/2020 11:42:08 -73.50, 179.40 121.81 08/10/2020 11:40:56 -73.46, 178.45 121.81 30.62 72
10 08/10/2020 12:31:41 73.78, -13.55 58.49 08/10/2020 12:31:30 73.78, -13.49 58.49 2.00 11
11 08/10/2020 13:21:07 -73.81, 154.02 121.46 08/10/2020 13:22:10 -73.84, 153.98 121.45 2.83 63
12 08/13/2020 07:16:26 -73.66,-114.50 120.80 08/13/2020 07:15:13 -73.67,-114.67 120.78 5.55 73
13 08/13/2020 08:05:56 73.78, 52.88 59.34 08/13/2020 08:05:51 73.78, 52.93 59.34 1.60 5
14 08/13/2020 08:55:22 -73.81,-139.55 120.62 08/13/2020 08:56:31 -73.84,-139.60 120.60 3.26 69
